Regional Weather Roundup
Issued by NWS

Home | Current Version | Previous Version | Graphics & Text | Print | Product List | Glossary On
Versions: 1 2 3 4 5 6 7 8 9 10 11 12 13 14 15 16 17 18 19 20 21 22 23 24 25 26 27 28 29 30 31 32 33 34 35 36 37 38 39 40 41 42 43 44 45 46 47 48 49 50
000
ASUS43 KLMK 180410
RWRKY
KENTUCKY REGIONAL WEATHER ROUNDUP
NATIONAL WEATHER SERVICE LOUISVILLE KY
1200 AM EDT THU SEP 18 2014

NOTE "FAIR" INDICATES FEW OR NO CLOUDS BELOW 12,000 FEET
WITH NO SIGNIFICANT WEATHER AND/OR OBSTRUCTIONS TO VISIBILITY.

KYZ001>023-026-027-061>063-070>075-180500-
WESTERN AND SOUTH CENTRAL KENTUCKY

CITY           SKY/WX    TMP DP  RH WIND       PRES   REMARKS
PADUCAH        CLEAR     63  57  81 CALM      29.98R
HENDERSON      CLOUDY    63  55  77 CALM      30.00R
OWENSBORO      CLOUDY    65  57  75 NE6       30.00R
HOPKINSVILLE   CLOUDY    61  61  99 N2        29.99R
BOWLING GREEN  CLEAR     60  55  83 CALM      30.00R
GLASGOW        CLOUDY    59  59 100 CALM      29.99R
$$

KYZ024-025-028>034-038-045-046-053-180500-
NORTH CENTRAL KENTUCKY

CITY           SKY/WX    TMP DP  RH WIND       PRES   REMARKS
LOUISVILLE/SDF PTCLDY    60  52  74 N7        30.01R
LOUISVILLE/LOU PTCLDY    59  53  80 CALM      30.02R
FORT KNOX      PTCLDY    59  55  85 N6        30.00R
$$

KYZ035>037-039>044-047>052-055>060-089>105-180500-
NORTHEAST KENTUCKY

CITY           SKY/WX    TMP DP  RH WIND       PRES   REMARKS
LEXINGTON      CLEAR     58  52  80 CALM      30.01R
COVINGTON      CLEAR     56  48  74 N5        30.02R
FRANKFORT      CLEAR     54  52  93 CALM      30.00R
$$

KYZ054-064>069-076>088-106>120-180500-
SOUTHEAST KENTUCKY

CITY           SKY/WX    TMP DP  RH WIND       PRES   REMARKS
JACKSON        CLEAR     58  54  86 SE3       29.99S
LONDON         CLEAR     59  54  83 W3        30.00R
SOMERSET       NOT AVBL
MIDDLESBORO    CLEAR     55  54  96 CALM      29.99S
MONTICELLO     MOCLDY    57  56  97 CALM      30.01S FOG
$$




USA.gov is the U.S. government's official web portal to all federal, state and local government web resources and services.